Hourly Data Report for October 05, 2016

All times are specified in Local Standard Time (LST). Add 1 hour to adjust for Daylight Saving Time where and when it is observed.

POND INLET A
NUNAVUT

72°41'22.000" N
77°58'08.000" W
61.60 m
2403206
71095
YIO

Download Data

Hourly Data (October 2016)
Hourly Data Report for October 5, 2016
Temp Definition
°C
Dew Point Temp Definition
°C
Rel Hum Definition
%
Wind Dir Definition
10's deg

Wind Spd Definition
km/h
Visibility Definition
km
Stn Press Definition
kPa
Hmdx Definition


Wind Chill Definition


Weather Definition


TIME
00:00 Legend Double Dagger -2.6 -8.0 67 9 11 16.1 99.86   -7 LegendNANA
01:00 Legend Double Dagger -1.8 -6.8 69 6 11 16.1 99.92   -6 LegendNANA
02:00 Legend Double Dagger -2.1 -6.8 70   0 16.1 100.00     LegendNANA
03:00 Legend Double Dagger -1.4 -6.0 71 30 5 16.1 100.06   -3 LegendNANA
04:00 Legend Double Dagger -2.4 -6.8 72   0 16.1 100.11     LegendNANA
05:00 Legend Double Dagger -5.5 -8.6 79 15 11 16.1 100.17   -10 LegendNANA
06:00 Legend Double Dagger -5.9 -9.0 79 16 5 16.1 100.24   -8 LegendNANA
07:00 Legend Double Dagger -6.7 -9.5 81 13 11 16.1 100.30   -12 LegendNANA
08:00 Legend Double Dagger -5.8 -9.5 75 14 13 16.1 100.37   -11 LegendNANA
09:00 Legend Double Dagger -5.3 -9.2 74 8 5 16.1 100.40   -8 LegendNANA
10:00 Legend Double Dagger -3.1 -7.1 74 4 8 16.1 100.45   -6 LegendNANA
11:00 Legend Double Dagger -6.2 -10.0 75 15 13 16.1 100.48   -12 LegendNANA
12:00 Legend Double Dagger -4.5 -8.3 75 LegendMM 4 16.1 100.50   -6 LegendNANA
13:00 Legend Double Dagger -6.5 -10.1 76 16 15 16.1 100.52   -12 LegendNANA
14:00 Legend Double Dagger -6.7 -9.8 79 14 18 16.1 100.53   -13 LegendNANA
15:00 Legend Double Dagger -6.9 -10.0 79 14 21 16.1 100.56   -14 LegendNANA
16:00 Legend Double Dagger -6.3 -9.9 76 14 24 16.1 100.57   -14 LegendNANA
17:00 Legend Double Dagger -5.7 -8.6 80 15 22 16.1 100.58   -13 LegendNANA
18:00 Legend Double Dagger -5.7 -8.0 84 14 22 16.1 100.59   -13 LegendNANA
19:00 Legend Double Dagger -5.1 -7.6 83 16 28 16.1 100.58   -13 LegendNANA
20:00 Legend Double Dagger -5.5 -7.8 84 16 22 16.1 100.58   -13 LegendNANA
21:00 Legend Double Dagger -5.8 -7.3 89 17 28 16.1 100.55   -14 LegendNANA
22:00 Legend Double Dagger -7.4 -8.9 89 17 28 16.1 100.53   -16 LegendNANA
23:00 Legend Double Dagger -8.7 -10.4 87 16 22 16.1 100.50   -17 LegendNANA

Notes on Data Quality.

Legend

  • E = Estimated
  • M = Missing
  • NA = Not Available
  • ‡ = Partner data that is not subject to review by the National Climate Archives
Date modified: